Time,TemperatureF,DewpointF,PressureIn,WindDirection,WindDirectionDegrees,WindSpeedMPH,WindSpeedGustMPH,Humidity,HourlyPrecipIn,Conditions,Clouds,dailyrainin,SolarRadiationWatts/m^2,SoftwareType,DateUTC
2013-02-11 00:02:00,31.0,31.0,-100.00,SSE,148,8.0,16.0,99,0.00,,,-99.99,0.000000,,2013-02-11 05:02:00,
2013-02-11 00:22:00,31.0,31.0,-100.00,SE,143,8.0,18.0,100,0.00,,,-99.99,0.000000,,2013-02-11 05:22:00,
2013-02-11 00:32:00,31.0,31.0,-100.00,SE,143,8.0,18.0,100,0.00,,,-99.99,0.000000,,2013-02-11 05:32:00,
2013-02-11 00:42:00,31.0,31.0,-100.00,SE,143,8.0,18.0,100,0.00,,,-99.99,0.000000,,2013-02-11 05:42:00,
2013-02-11 00:53:00,31.0,31.0,-100.00,SE,143,8.0,18.0,100,0.00,,,-99.99,0.000000,,2013-02-11 05:53:00,
2013-02-11 01:02:00,31.0,31.0,-100.00,SE,143,8.0,18.0,100,0.00,,,-99.99,0.000000,,2013-02-11 06:02:00,
2013-02-11 01:32:00,32.0,32.0,-100.00,SSE,147,8.0,16.0,100,0.00,,,-99.99,0.000000,,2013-02-11 06:32:00,
2013-02-11 01:42:00,32.0,32.0,-100.00,SSE,147,8.0,16.0,100,0.00,,,-99.99,0.000000,,2013-02-11 06:42:00,
2013-02-11 01:52:00,32.0,32.0,-100.00,SSE,147,8.0,16.0,100,0.00,,,-99.99,0.000000,,2013-02-11 06:52:00,
2013-02-11 02:02:00,32.0,32.0,-100.00,SSE,147,8.0,16.0,100,0.00,,,-99.99,0.000000,,2013-02-11 07:02:00,
2013-02-11 02:32:00,32.0,32.0,-100.00,SE,146,7.0,14.0,100,0.00,,,-99.99,0.000000,,2013-02-11 07:32:00,
2013-02-11 02:42:00,32.0,32.0,-100.00,SE,146,7.0,14.0,100,0.00,,,-99.99,0.000000,,2013-02-11 07:42:00,
2013-02-11 02:52:00,32.0,32.0,-100.00,SE,146,7.0,14.0,100,0.00,,,-99.99,0.000000,,2013-02-11 07:52:00,
2013-02-11 03:01:00,32.0,32.0,-100.00,SE,146,7.0,14.0,100,0.00,,,-99.99,0.000000,,2013-02-11 08:01:00,
2013-02-11 03:32:00,32.0,32.0,-100.00,SSE,147,6.0,12.0,100,0.00,,,-99.99,0.000000,,2013-02-11 08:32:00,
2013-02-11 03:42:00,32.0,32.0,-100.00,SSE,147,6.0,12.0,100,0.00,,,-99.99,0.000000,,2013-02-11 08:42:00,
2013-02-11 03:52:00,32.0,32.0,-100.00,SSE,147,6.0,12.0,100,0.00,,,-99.99,0.000000,,2013-02-11 08:52:00,
2013-02-11 04:02:00,32.0,32.0,-100.00,SSE,147,6.0,12.0,100,0.00,,,-99.99,0.000000,,2013-02-11 09:02:00,
2013-02-11 04:32:00,32.0,32.0,-100.00,SSE,155,7.0,11.0,100,0.00,,,-99.99,0.000000,,2013-02-11 09:32:00,
2013-02-11 04:42:00,32.0,32.0,-100.00,SSE,155,7.0,11.0,100,0.00,,,-99.99,0.000000,,2013-02-11 09:42:00,
2013-02-11 04:52:00,32.0,32.0,-100.00,SSE,155,7.0,11.0,100,0.00,,,-99.99,0.000000,,2013-02-11 09:52:00,
2013-02-11 05:01:00,32.0,32.0,-100.00,SSE,155,7.0,11.0,100,0.00,,,-99.99,0.000000,,2013-02-11 10:01:00,
2013-02-11 05:32:00,33.0,33.0,-100.00,SSE,156,7.0,12.0,100,0.00,,,-99.99,0.000000,,2013-02-11 10:32:00,
2013-02-11 05:42:00,33.0,33.0,-100.00,SSE,156,7.0,12.0,100,0.00,,,-99.99,0.000000,,2013-02-11 10:42:00,
2013-02-11 05:52:00,33.0,33.0,-100.00,SSE,156,7.0,12.0,100,0.00,,,-99.99,0.000000,,2013-02-11 10:52:00,
2013-02-11 06:02:00,33.0,33.0,-100.00,SSE,156,7.0,12.0,100,0.00,,,-99.99,0.000000,,2013-02-11 11:02:00,
2013-02-11 06:32:00,34.0,34.0,-100.00,SSE,166,6.0,11.0,100,0.00,,,-99.99,0.000000,,2013-02-11 11:32:00,
2013-02-11 06:42:00,34.0,34.0,-100.00,SSE,166,6.0,11.0,100,0.00,,,-99.99,0.000000,,2013-02-11 11:42:00,
2013-02-11 06:52:00,34.0,34.0,-100.00,SSE,166,6.0,11.0,100,0.00,,,-99.99,0.000000,,2013-02-11 11:52:00,
2013-02-11 07:03:00,34.0,34.0,-100.00,SSE,166,6.0,11.0,100,0.00,,,-99.99,0.000000,,2013-02-11 12:03:00,
2013-02-11 07:32:00,34.0,34.0,-100.00,South,184,6.0,10.0,100,0.02,,,-99.99,0.000000,,2013-02-11 12:32:00,
2013-02-11 07:42:00,34.0,34.0,-100.00,South,184,6.0,10.0,100,0.02,,,-99.99,0.000000,,2013-02-11 12:42:00,
2013-02-11 07:52:00,34.0,34.0,-100.00,South,184,6.0,10.0,100,0.02,,,-99.99,0.000000,,2013-02-11 12:52:00,
2013-02-11 08:02:00,34.0,34.0,-100.00,South,184,6.0,10.0,100,0.02,,,-99.99,0.000000,,2013-02-11 13:02:00,
2013-02-11 08:33:00,34.0,34.0,-100.00,SSW,194,9.0,13.0,100,0.10,,,-99.99,1.000000,,2013-02-11 13:33:00,
2013-02-11 08:42:00,34.0,34.0,-100.00,SSW,194,9.0,13.0,100,0.10,,,-99.99,1.000000,,2013-02-11 13:42:00,
2013-02-11 08:52:00,34.0,34.0,-100.00,SSW,194,9.0,13.0,100,0.10,,,-99.99,1.000000,,2013-02-11 13:52:00,
2013-02-11 09:02:00,34.0,34.0,-100.00,SSW,194,9.0,13.0,100,0.10,,,-99.99,1.000000,,2013-02-11 14:02:00,
2013-02-11 09:33:00,34.0,34.0,-100.00,SW,223,11.0,17.0,100,0.07,,,-99.99,19.000000,,2013-02-11 14:33:00,
2013-02-11 09:42:00,34.0,34.0,-100.00,SW,223,11.0,17.0,100,0.07,,,-99.99,19.000000,,2013-02-11 14:42:00,
2013-02-11 09:53:00,34.0,34.0,-100.00,SW,223,11.0,17.0,100,0.07,,,-99.99,19.000000,,2013-02-11 14:53:00,
2013-02-11 10:02:00,34.0,34.0,-100.00,SW,223,11.0,17.0,100,0.07,,,-99.99,19.000000,,2013-02-11 15:02:00,
2013-02-11 10:32:00,33.0,33.0,-100.00,SW,215,6.0,14.0,100,0.06,,,-99.99,67.000000,,2013-02-11 15:32:00,
2013-02-11 10:42:00,33.0,33.0,-100.00,SW,215,6.0,14.0,100,0.06,,,-99.99,67.000000,,2013-02-11 15:42:00,
2013-02-11 10:52:00,33.0,33.0,-100.00,SW,215,6.0,14.0,100,0.06,,,-99.99,67.000000,,2013-02-11 15:52:00,
2013-02-11 11:02:00,33.0,33.0,-100.00,SW,215,6.0,14.0,100,0.06,,,-99.99,67.000000,,2013-02-11 16:02:00,
2013-02-11 11:32:00,34.0,34.0,-100.00,SW,223,10.0,16.0,99,0.06,,,-99.99,90.000000,,2013-02-11 16:32:00,
2013-02-11 11:42:00,34.0,34.0,-100.00,SW,223,10.0,16.0,99,0.06,,,-99.99,90.000000,,2013-02-11 16:42:00,
2013-02-11 11:53:00,34.0,34.0,-100.00,SW,223,10.0,16.0,99,0.06,,,-99.99,90.000000,,2013-02-11 16:53:00,
2013-02-11 12:02:00,34.0,34.0,-100.00,SW,223,10.0,16.0,99,0.06,,,-99.99,90.000000,,2013-02-11 17:02:00,
2013-02-11 12:32:00,34.0,33.0,-100.00,SW,225,11.0,17.0,96,0.08,,,-99.99,133.000000,,2013-02-11 17:32:00,
2013-02-11 12:42:00,34.0,33.0,-100.00,SW,225,11.0,17.0,96,0.08,,,-99.99,133.000000,,2013-02-11 17:42:00,
2013-02-11 12:53:00,34.0,33.0,-100.00,SW,225,11.0,17.0,96,0.08,,,-99.99,133.000000,,2013-02-11 17:53:00,
2013-02-11 13:02:00,34.0,33.0,-100.00,SW,225,11.0,17.0,96,0.08,,,-99.99,133.000000,,2013-02-11 18:02:00,
2013-02-11 13:22:00,34.0,33.0,-100.00,SW,229,10.0,19.0,96,0.08,,,-99.99,131.000000,,2013-02-11 18:22:00,
2013-02-11 13:32:00,34.0,33.0,-100.00,SW,229,10.0,19.0,96,0.08,,,-99.99,131.000000,,2013-02-11 18:32:00,
2013-02-11 13:42:00,34.0,33.0,-100.00,SW,229,10.0,19.0,96,0.08,,,-99.99,131.000000,,2013-02-11 18:42:00,
2013-02-11 13:54:00,34.0,33.0,-100.00,SW,229,10.0,19.0,96,0.08,,,-99.99,131.000000,,2013-02-11 18:54:00,
2013-02-11 14:02:00,34.0,33.0,-100.00,SW,229,10.0,19.0,96,0.08,,,-99.99,131.000000,,2013-02-11 19:02:00,
2013-02-11 14:22:00,34.0,33.0,-100.00,SW,230,8.0,16.0,95,0.06,,,-99.99,142.000000,,2013-02-11 19:22:00,
2013-02-11 14:32:00,34.0,33.0,-100.00,SW,230,8.0,16.0,95,0.06,,,-99.99,142.000000,,2013-02-11 19:32:00,
2013-02-11 14:42:00,34.0,33.0,-100.00,SW,230,8.0,16.0,95,0.06,,,-99.99,142.000000,,2013-02-11 19:42:00,
2013-02-11 14:52:00,34.0,33.0,-100.00,SW,230,8.0,16.0,95,0.06,,,-99.99,142.000000,,2013-02-11 19:52:00,
2013-02-11 15:02:00,34.0,33.0,-100.00,SW,230,8.0,16.0,95,0.06,,,-99.99,142.000000,,2013-02-11 20:02:00,
2013-02-11 15:32:00,35.0,34.0,-100.00,WSW,239,6.0,13.0,95,0.07,,,-99.99,156.000000,,2013-02-11 20:32:00,
2013-02-11 15:42:00,35.0,34.0,-100.00,WSW,239,6.0,13.0,95,0.07,,,-99.99,156.000000,,2013-02-11 20:42:00,
2013-02-11 15:52:00,35.0,34.0,-100.00,WSW,239,6.0,13.0,95,0.07,,,-99.99,156.000000,,2013-02-11 20:52:00,
2013-02-11 16:02:00,35.0,34.0,-100.00,WSW,239,6.0,13.0,95,0.07,,,-99.99,156.000000,,2013-02-11 21:02:00,
2013-02-11 16:32:00,35.0,34.0,-100.00,WSW,244,5.0,11.0,96,0.07,,,-99.99,159.000000,,2013-02-11 21:32:00,
2013-02-11 16:42:00,35.0,34.0,-100.00,WSW,244,5.0,11.0,96,0.07,,,-99.99,159.000000,,2013-02-11 21:42:00,
2013-02-11 16:52:00,35.0,34.0,-100.00,WSW,244,5.0,11.0,96,0.07,,,-99.99,159.000000,,2013-02-11 21:52:00,
2013-02-11 17:02:00,35.0,34.0,-100.00,WSW,244,5.0,11.0,96,0.07,,,-99.99,159.000000,,2013-02-11 22:02:00,
2013-02-11 17:32:00,33.0,32.0,-100.00,WNW,294,10.0,20.0,98,0.04,,,-99.99,55.000000,,2013-02-11 22:32:00,
2013-02-11 17:42:00,33.0,32.0,-100.00,WNW,294,10.0,20.0,98,0.04,,,-99.99,55.000000,,2013-02-11 22:42:00,
2013-02-11 17:52:00,33.0,32.0,-100.00,WNW,294,10.0,20.0,98,0.04,,,-99.99,55.000000,,2013-02-11 22:52:00,
2013-02-11 18:02:00,33.0,32.0,-100.00,WNW,294,10.0,20.0,98,0.04,,,-99.99,55.000000,,2013-02-11 23:02:00,
2013-02-11 18:22:00,30.0,28.0,-100.00,NW,317,12.0,26.0,94,0.01,,,-99.99,13.000000,,2013-02-11 23:22:00,
2013-02-11 18:32:00,30.0,28.0,-100.00,NW,317,12.0,26.0,94,0.01,,,-99.99,13.000000,,2013-02-11 23:32:00,
2013-02-11 18:42:00,30.0,28.0,-100.00,NW,317,12.0,26.0,94,0.01,,,-99.99,13.000000,,2013-02-11 23:42:00,
2013-02-11 18:52:00,30.0,28.0,-100.00,NW,317,12.0,26.0,94,0.01,,,-99.99,13.000000,,2013-02-11 23:52:00,
2013-02-11 19:02:00,30.0,28.0,-100.00,NW,317,12.0,26.0,94,0.01,,,-99.99,13.000000,,2013-02-12 00:02:00,
2013-02-11 19:32:00,28.0,26.0,-100.00,NW,322,10.0,24.0,93,0.00,,,-99.99,0.000000,,2013-02-12 00:32:00,
2013-02-11 19:42:00,28.0,26.0,-100.00,NW,322,10.0,24.0,93,0.00,,,-99.99,0.000000,,2013-02-12 00:42:00,
2013-02-11 19:52:00,28.0,26.0,-100.00,NW,322,10.0,24.0,93,0.00,,,-99.99,0.000000,,2013-02-12 00:52:00,
2013-02-11 20:02:00,28.0,26.0,-100.00,NW,322,10.0,24.0,93,0.00,,,-99.99,0.000000,,2013-02-12 01:02:00,
2013-02-11 20:32:00,26.0,23.0,-100.00,NW,321,14.0,27.0,90,0.00,,,-99.99,0.000000,,2013-02-12 01:32:00,
2013-02-11 20:42:00,26.0,23.0,-100.00,NW,321,14.0,27.0,90,0.00,,,-99.99,0.000000,,2013-02-12 01:42:00,
2013-02-11 20:52:00,26.0,23.0,-100.00,NW,321,14.0,27.0,90,0.00,,,-99.99,0.000000,,2013-02-12 01:52:00,
2013-02-11 21:02:00,26.0,23.0,-100.00,NW,321,14.0,27.0,90,0.00,,,-99.99,0.000000,,2013-02-12 02:02:00,
2013-02-11 21:22:00,26.0,23.0,-100.00,NW,319,11.0,28.0,88,0.00,,,-99.99,0.000000,,2013-02-12 02:22:00,
2013-02-11 21:32:00,26.0,23.0,-100.00,NW,319,11.0,28.0,88,0.00,,,-99.99,0.000000,,2013-02-12 02:32:00,
2013-02-11 21:42:00,26.0,23.0,-100.00,NW,319,11.0,28.0,88,0.00,,,-99.99,0.000000,,2013-02-12 02:42:00,
2013-02-11 21:53:00,26.0,23.0,-100.00,NW,319,11.0,28.0,88,0.00,,,-99.99,0.000000,,2013-02-12 02:53:00,
2013-02-11 22:02:00,26.0,23.0,-100.00,NW,319,11.0,28.0,88,0.00,,,-99.99,0.000000,,2013-02-12 03:02:00,
2013-02-11 22:32:00,25.0,21.0,-100.00,NW,310,10.0,25.0,85,0.00,,,0.72,0.000000,,2013-02-12 03:32:00,
2013-02-11 22:42:00,25.0,21.0,-100.00,NW,310,10.0,25.0,85,0.00,,,0.72,0.000000,,2013-02-12 03:42:00,
2013-02-11 22:52:00,25.0,21.0,-100.00,NW,310,10.0,25.0,85,0.00,,,0.72,0.000000,,2013-02-12 03:52:00,
2013-02-11 23:01:00,25.0,21.0,-100.00,NW,310,10.0,25.0,85,0.00,,,0.72,0.000000,,2013-02-12 04:01:00,
2013-02-11 23:21:00,24.0,20.0,-100.00,NW,310,8.0,18.0,85,0.00,,,0.72,0.000000,,2013-02-12 04:21:00,
2013-02-11 23:32:00,24.0,20.0,-100.00,NW,310,8.0,18.0,85,0.00,,,0.72,0.000000,,2013-02-12 04:32:00,
2013-02-11 23:42:00,24.0,20.0,-100.00,NW,310,8.0,18.0,85,0.00,,,0.72,0.000000,,2013-02-12 04:42:00,
2013-02-11 23:52:00,24.0,20.0,-100.00,NW,310,8.0,18.0,85,0.00,,,0.72,0.000000,,2013-02-12 04:52:00,